Regional Weather Roundup
Issued by NWS Bismarck, ND

Home | Current Version | Previous Version | Text Only | Print | Product List | Glossary On
Versions: 1 2 3 4 5 6 7 8 9 10 11 12 13 14 15 16 17 18 19 20 21 22 23 24 25 26 27 28 29 30 31 32 33 34 35 36 37 38 39 40 41 42 43 44 45 46 47 48 49 50
771
ASUS43 KBIS 281310
RWRBIS

NWR BROADCAST TEXT
NATIONAL WEATHER SERVICE BISMARCK ND
800 AM CDT FRI JUL 28 2017

NOTE: "FAIR" INDICATES FEW OR NO CLOUDS BELOW 12,000 FEET WITH NO
SIGNIFICANT WEATHER AND/OR OBSTRUCTIONS TO VISIBILITY.


CITY           SKY/WX    TMP DP  RH WIND       PRES   REMARKS
WILLISTON      SUNNY     66  62  87 CALM      30.01R
MINOT          SUNNY     70  59  68 SE7       30.03R
MINOT AFB      SUNNY     66  59  80 SE8       30.01S
BISMARCK       MOSUNNY   69  62  78 E6        30.06R
DICKINSON      CLOUDY    67  60  78 SE9       30.02S
GARRISON         N/A     65  62  90 SE7       30.04R
HETTINGER ARPT MOSUNNY   65  57  75 SE5       30.06R
JAMESTOWN      MOSUNNY   63  59  87 CALM      30.09S
HAZEN          FAIR      66  61  82 E6        30.05S
LINTON         PTSUNNY  N/A N/A N/A SE7       30.08S
MANDAN         PTSUNNY   66  63  88 E6        30.07R
STANLEY        FAIR      66  66 100 S3        30.06S
TIOGA          FAIR      64  64 100 S5        30.05R
WATFORD CITY   FAIR      64  61  88 SE6       30.01R
$$

CITY           SKY/WX    TMP DP  RH WIND       PRES   REMARKS
GRAND FORKS    MOSUNNY   66  62  87 CALM      30.08S
GRAND FORKS AF MOSUNNY   66  60  81 CALM      30.09R
DEVILS LAKE    SUNNY     70  60  70 SE6       30.10R
FARGO          PTSUNNY   69  62  78 CALM      30.09R
CAVALIER       FAIR      64  61  88 CALM      30.08R
GRAFTON        FAIR      64  63  94 CALM      30.11R
GWINNER        SUNNY     70  63  78 CALM      30.09S
LANGDON        FAIR      64  64 100 S8        30.11R
ROLLA            N/A     66  61  82 S8        30.09S
$$

CITY           SKY/WX    TMP DP  RH WIND       PRES   REMARKS
ABERDEEN       CLOUDY    68  64  87 SE5       30.08S
MOBRIDGE       CLOUDY    72  63  73 SE9       30.03S
BUFFALO          N/A     63  58  83 S13       29.98S
RAPID CITY     CLOUDY    62  56  80 SW5       30.06R
GLASGOW        SUNNY     63  54  72 SE15      29.96R
SIDNEY         SUNNY     63  59  87 E3        30.00S
WOLF POINT     SUNNY     63  56  78 E5        29.99S
GLENDIVE       SUNNY     64  58  80 E5        30.00S
MILES CITY     SUNNY     63  53  70 NE5       29.99R
BAKER          SUNNY     62  55  77 SE12      30.03R
$$

CITY           SKY/WX    TMP DP  RH WIND       PRES   REMARKS
BILLINGS       CLOUDY    69  49  48 SW13      30.05R
GREAT FALLS    CLEAR     65  44  46 SW10      30.07R
REGINA         MOSUNNY   63  57  82 SE13      29.96S
ESTEVAN        MOSUNNY   63  59  88 SE2       30.01S
$$





USA.gov is the U.S. government's official web portal to all federal, state and local government web resources and services.